Harrison, AR

10:19 PM CDT on March 22, 2017 (GMT -0500)
Boone County

Weather History for KHRO - November, 2010

Change the Weather History Date:

Friday, November 19, 2010

  Actual Average Record
Temperature  
Mean Temperature 48 °F 47 °F  
Max Temperature 62 °F 57 °F 82 °F (1908)
Min Temperature 33 °F 37 °F 9 °F (1951)
Degree Days  
Heating Degree Days 17 18  
Month to date heating degree days 234 274  
Since 1 July heating degree days 399 539  
Cooling Degree Days 0 0  
Month to date cooling degree days 1 0  
Year to date cooling degree days 1866 1412  
Moisture  
Dew Point 35 °F    
Average Humidity 68    
Maximum Humidity 100    
Minimum Humidity 36    
Precipitation  
Precipitation 0.00 in 0.15 in 2.69 in (1985)
Month to date precipitation 0.26 2.78  
Year to date precipitation 44.18 39.49  
Snow  
Snow 0.00 in 0.00 in 2.10 in (1972)
Month to date snowfall 0.0 0.0  
Since 1 July snowfall 0.0 0.1  
Since 1 September snowfall 0.0 0.1  
Snow Depth 0.00 in    
Sea Level Pressure  
Sea Level Pressure 30.18 in    
Wind  
Wind Speed 10 mph (SE)    
Max Wind Speed 20 mph    
Max Gust Speed 25 mph    
Visibility 7 miles    
Events      
T = Trace of Precipitation, MM = Missing Value Source: NWS Daily Summary

Daily Weather History Graph

Daily Weather History Graph

Search for Another Location

Airport or City:

Trip Planner

Search our weather history database for the weather conditions in past years. The results will help you decide how hot, cold, wet, or windy it might be!

Date:

Astronomy

Nov. 19, 2010 Rise Set
Actual Time 6:53 AM CST 5:02 PM CST
Civil Twilight 6:26 AM CST 5:29 PM CST
Nautical Twilight 5:54 AM CST 6:00 PM CST
Astronomical Twilight 5:24 AM CST 6:31 PM CST
Moon 3:32 PM CST (11/19) 4:53 AM CST (11/19)
Length of Visible Light 11h 03m
Length of Day
10h 08m
Waxing Gibbous, 96% of the Moon is Illuminated
Nov 19
Waxing Gibbous
Nov 21
Full
Nov 28
Last Quarter
Dec 5
New
Dec 13
First Quarter

Hourly Weather History & Observations

Time (CST) Temp. Windchill Dew Point Humidity Pressure Visibility Wind Dir Wind Speed Gust Speed Precip Events Conditions
12:00 AM 33.8 °F 30.8 °F 32.0 °F 93% 30.26 in 2.5 mi South 3.5 mph - N/A   Clear
12:21 AM 33.8 °F 29.6 °F 32.0 °F 93% 30.26 in 1.8 mi SSE 4.6 mph - N/A   Clear
12:29 AM 33.8 °F 27.7 °F 32.0 °F 93% 30.26 in 2.5 mi SE 6.9 mph - N/A   Clear
12:37 AM 33.8 °F 29.6 °F 32.0 °F 93% 30.26 in 4.0 mi SE 4.6 mph - N/A   Clear
12:53 AM 34.0 °F 31.0 °F 33.1 °F 96% 30.28 in 2.0 mi SSE 3.5 mph - N/A   Clear
1:16 AM 33.8 °F 28.6 °F 32.0 °F 93% 30.25 in 1.2 mi SE 5.8 mph - N/A   Clear
1:31 AM 33.8 °F 27.0 °F 33.8 °F 100% 30.24 in 2.5 mi ESE 8.1 mph - N/A   Clear
1:49 AM 33.8 °F 27.0 °F 32.0 °F 93% 30.24 in 3.0 mi SE 8.1 mph - N/A   Clear
1:53 AM 34.0 °F 27.2 °F 32.0 °F 92% 30.26 in 3.0 mi SE 8.1 mph - N/A   Clear
2:53 AM 33.1 °F 26.1 °F 32.0 °F 96% 30.25 in 4.0 mi ESE 8.1 mph - N/A   Clear
3:53 AM 34.0 °F 27.2 °F 32.0 °F 92% 30.23 in 5.0 mi ESE 8.1 mph - N/A   Clear
4:53 AM 36.0 °F 27.5 °F 33.1 °F 89% 30.21 in 6.0 mi SE 12.7 mph - N/A   Clear
5:53 AM 37.0 °F 29.8 °F 34.0 °F 89% 30.20 in 7.0 mi SE 10.4 mph - N/A   Clear
6:53 AM 36.0 °F 29.0 °F 34.0 °F 93% 30.20 in 5.0 mi ESE 9.2 mph - N/A   Clear
7:53 AM 39.9 °F 33.4 °F 36.0 °F 86% 30.20 in 8.0 mi SSE 10.4 mph - N/A   Clear
8:53 AM 45.0 °F 38.5 °F 39.0 °F 80% 30.21 in 10.0 mi South 13.8 mph 20.7 mph N/A   Clear
9:53 AM 48.0 °F - 39.0 °F 71% 30.20 in 10.0 mi South 12.7 mph 20.7 mph N/A   Clear
10:53 AM 52.0 °F - 39.0 °F 61% 30.20 in 10.0 mi SSE 12.7 mph - N/A   Clear
11:53 AM 55.0 °F - 39.0 °F 55% 30.16 in 10.0 mi SSE 12.7 mph - N/A   Clear
12:53 PM 57.9 °F - 37.9 °F 47% 30.13 in 10.0 mi SE 12.7 mph - N/A   Clear
1:53 PM 62.1 °F - 36.0 °F 38% 30.10 in 10.0 mi SSE 11.5 mph - N/A   Clear
2:53 PM 61.0 °F - 35.1 °F 38% 30.08 in 10.0 mi SSE 13.8 mph - N/A   Clear
3:53 PM 60.1 °F - 35.1 °F 39% 30.08 in 10.0 mi SSE 16.1 mph - N/A   Clear
4:53 PM 55.0 °F - 35.1 °F 47% 30.08 in 10.0 mi South 10.4 mph - N/A   Clear
5:53 PM 52.0 °F - 36.0 °F 54% 30.09 in 10.0 mi South 9.2 mph - N/A   Clear
6:53 PM 48.0 °F - 37.0 °F 66% 30.10 in 10.0 mi SSE 10.4 mph - N/A   Clear
7:53 PM 46.9 °F - 37.9 °F 71% 30.09 in 10.0 mi SE 9.2 mph - N/A   Clear
8:53 PM 45.0 °F 40.1 °F 39.0 °F 80% 30.09 in 10.0 mi SE 9.2 mph - N/A   Clear
9:53 PM 43.0 °F - 37.0 °F 80% 30.11 in 10.0 mi Calm Calm - N/A   Clear
10:53 PM 43.0 °F 41.3 °F 37.9 °F 82% 30.13 in 10.0 mi East 3.5 mph - N/A   Clear
11:53 PM 39.0 °F 35.7 °F 36.0 °F 89% 30.13 in 8.0 mi SE 4.6 mph - N/A   Clear